Simultaneous Nadir Overpasses (SNOs) Predictions

Prediction of SNOs between NOAA-20 and NOAA-19 Satellite Orbit:

Table of predicted SNOs for the next 14.0 days since TLE Epoch: 1/26/2019
Index Date (NOAA-20) Time (NOAA-20) Lat,Lon (NOAA-20) SZA (NOAA-20 ) Date (NOAA-19) Time (NOAA-19) Lat,Lon (NOAA-19) SZA (NOAA-19 ) Distance(km) Time Diff (sec)
1 01/26/2019 04:16:45 80.28, 73.71 101.79 01/26/2019 04:17:32 80.28, 73.89 101.74 3.43 47
2 01/26/2019 05:07:30 -80.29,-119.03 78.22 01/26/2019 05:08:36 -80.27,-118.98 78.27 2.02 66
3 02/08/2019 19:36:41 -80.25, 24.13 82.11 02/08/2019 19:35:35 -80.23, 24.11 82.09 2.48 66
4 02/08/2019 20:27:25 80.22,-168.26 97.83 02/08/2019 20:26:29 80.24,-168.35 97.88 2.77 56
5 02/08/2019 21:18:11 -80.25, -1.26 82.13 02/08/2019 21:17:35 -80.25, -1.08 82.14 3.31 36
6 02/08/2019 22:08:56 80.25, 166.03 97.87 02/08/2019 22:08:30 80.24, 166.13 97.86 2.14 26
7 02/08/2019 22:59:41 -80.25, -26.65 82.15 02/08/2019 22:59:36 -80.25, -26.60 82.16 1.16 5
8 02/08/2019 23:50:26 80.25, 140.64 97.85 02/08/2019 23:50:31 80.24, 140.61 97.84 1.45 5
9 02/09/2019 00:41:11 -80.25, -52.04 82.17 02/09/2019 00:41:37 -80.24, -52.12 82.18 1.73 26
10 02/09/2019 01:31:56 80.26, 115.25 97.83 02/09/2019 01:32:31 80.26, 115.42 97.80 3.33 35
11 02/09/2019 02:22:41 -80.26, -77.44 82.19 02/09/2019 02:23:37 -80.26, -77.31 82.22 2.58 56




NCC Satellite Simultaneous Nadir Overpasses (SNOs) Prediction Service
